This demonstration page uses our WeatherBlox Daily Observations layout. Learn more.

Left ArrowRight Arrow

31.84235, -102.49876

Hourly Observations for December 9, 2022

Temp ( °F °C ) Dew Point ( °F °C ) Humidity (%) Winds ( mph kmh ) Pressure ( in mb ) Visibility ( mi km ) Precip ( " mm )
12:53 am 00:53 Clear 55 12.8 48 8.9 77 77 ENE 7 11 30.08 1019 10 16 0.00 0.00
1:53 am 01:53 Partly Cloudy 55 12.8 49 9.4 80 80 ESE 5 7 30.06 1018 10 16 0.00 0.00
2:53 am 02:53 Partly Cloudy 55 12.8 51 10.6 86 86 ESE 3 6 30.06 1018 10 16 0.00 0.00
3:53 am 03:53 Cloudy 56 13.3 53 11.7 90 90 NNE 3 6 30.06 1018 9 14 0.00 0.00
4:21 am 04:21 Mostly Cloudy 55 12.8 51 10.6 86 86 N 7 11 30.11 1020 10 16 0.00 0.00
4:53 am 04:53 Cloudy 55 12.8 48 8.9 77 77 NNE 7 11 30.05 1018 10 16 0.00 0.00
5:53 am 05:53 Cloudy 54 12.2 47 8.3 77 77 N 9 15 30.06 1018 10 16 0.00 0.00
6:53 am 06:53 Cloudy 54 12.2 47 8.3 77 77 NE 6 9 30.07 1018 10 16 0.00 0.00
7:53 am 07:53 Cloudy 54 12.2 47 8.3 77 77 NE 9 15 30.07 1018 10 16 0.00 0.00
8:53 am 08:53 Cloudy 55 12.8 49 9.4 80 80 NE 5 7 30.08 1019 8 13 0.00 0.00
9:53 am 09:53 Cloudy 55 12.8 51 10.6 86 86 NNE 5 7 30.09 1019 7 11 0.00 0.00
10:12 am 10:12 Cloudy 56 13.3 51 10.6 84 84 NE 6 9 30.12 1020 7 11 0.00 0.00
10:53 am 10:53 Cloudy with Mist and Fog 57 13.9 53 11.7 87 87 NE 7 11 30.09 1019 4 6 0.00 0.00
11:19 am 11:19 Cloudy with Mist and Fog 57 13.9 53 11.7 87 87 ENE 6 9 30.10 1019 2 3 0.00 0.00
11:35 am 11:35 Cloudy with Mist and Fog 56 13.3 54 12.2 93 93 ENE 5 7 30.10 1019 3 4 0.01 0.13
11:53 am 11:53 Cloudy with Mist and Fog 56 13.3 54 12.2 93 93 ENE 6 9 30.06 1018 3 5 0.01 0.13
12:36 pm 12:36 Cloudy with Mist and Fog 58 14.4 56 13.3 93 93 NE 5 7 30.05 1018 3 4 0.00 0.00
12:53 pm 12:53 Cloudy with Mist and Fog 58 14.4 56 13.3 93 93 ENE 6 9 30.02 1017 2 3 0.00 0.00
1:09 pm 13:09 Cloudy with Mist and Fog 58 14.4 57 13.9 97 97 E 5 7 30.03 1017 2 3 0.00 0.00
1:53 pm 13:53 Cloudy with Mist and Fog 59 15 58 14.4 96 96 E 9 15 29.98 1015 1 2 0.00 0.00
2:05 pm 14:05 Cloudy with Mist and Fog 59 15 59 15 100 100 E 9 15 29.98 1015 2 2 0.00 0.00
2:53 pm 14:53 Cloudy with Mist and Fog 60 15.6 59 15 96 96 E 9 15 29.95 1014 2 3 0.00 0.00
2:57 pm 14:57 Cloudy with Mist and Fog 60 15.6 59 15 96 96 E 8 13 29.96 1014 2 3 0.00 0.00
3:05 pm 15:05 Cloudy with Mist and Fog 61 16.1 59 15 93 93 E 9 15 29.94 1014 2 3 0.00 0.00
3:21 pm 15:21 Cloudy with Mist and Fog 61 16.1 59 15 93 93 E 8 13 29.94 1014 3 4 0.00 0.00
3:38 pm 15:38 Cloudy with Mist and Fog 64 17.8 60 15.6 87 87 S 13 20 29.92 1013 4 6 0.00 0.00
3:53 pm 15:53 Cloudy with Haze 65 18.3 60 15.6 84 84 SSE 14 22 29.93 1014 5 8 0.00 0.00
4:28 pm 16:28 Mostly Cloudy with Haze 65 18.3 60 15.6 84 84 SSE 14 22 29.92 1013 5 8 0.00 0.00
4:53 pm 16:53 Hazy 65 18.3 59 15 81 81 S 14 22 29.94 1014 5 8 0.00 0.00
5:53 pm 17:53 Cloudy with Mist and Fog 63 17.2 59 15 87 87 SSE 7 11 29.96 1014 6 10 0.00 0.00
6:53 pm 18:53 Cloudy with Mist and Fog 60 15.6 58 14.4 93 93 NE 7 11 29.97 1015 4 6 0.00 0.00
7:53 pm 19:53 Mostly Clear with Mist and Fog 61 16.1 58 14.4 90 90 SSE 12 19 29.96 1015 5 8 0.00 0.00
8:53 pm 20:53 Clear with Mist and Fog 62 16.7 59 15 90 90 S 12 19 29.98 1015 6 10 0.00 0.00
9:19 pm 21:19 Mostly Cloudy with Mist and Fog 61 16.1 59 15 93 93 S 13 20 29.97 1015 5 8 0.00 0.00
9:53 pm 21:53 Cloudy with Mist and Fog 61 16.1 59 15 93 93 S 8 13 29.98 1015 5 8 0.00 0.00
10:53 pm 22:53 Cloudy with Mist and Fog 61 16.1 59 15 93 93 S 5 7 29.99 1016 5 8 0.00 0.00
11:29 pm 23:29 Cloudy with Mist and Fog 61 16.1 59 15 93 93 S 12 19 29.98 1015 4 6 0.00 0.00
11:53 pm 23:53 Cloudy with Mist and Fog 61 16.1 59 15 93 93 S 7 11 29.98 1015 4 6 0.00 0.00

Powered by AerisWeather